K7OLI-13 Weather Reports


time (UTC)temp
C
wind
direction
speed
KPH
gust
KPH
rain 1hr
cm
rain 24hr
cm
rain mn
cm
humidity
%
barometer
mb
20260902193037 15 117 16.1 22.5 0.20 0.46 0.46 94
20260902192045 14 121 16.1 20.9 0.28 0.46 0.46 94
20260902191035 14 102 14.5 22.5 0.30 0.43 0.43 95
20260902190045 14 95 12.9 20.9 0.36 0.43 0.43 95
20260902185032 14 92 9.7 12.9 0.30 0.38 0.38 95
20260902184021 14 110 9.7 12.9 0.28 0.36 0.36 94
20260902183029 15 123 9.7 12.9 0.20 0.25 0.25 94
20260902182037 15 123 8.0 14.5 0.13 0.18 0.18 92
20260902181026 15 104 8.0 12.9 0.10 0.13 0.13 91
20260902180034 15 123 8.0 12.9 0.08 0.08 0.08 90
20260902175024 15 120 8.0 12.9 0.08 0.08 0.08 91
20260902174031 15 118 9.7 12.9 0.08 0.08 0.08 91
20260902173021 15 144 8.0 14.5 0.05 0.05 0.05 90
20260902172028 15 157 11.3 16.1 0.05 0.05 0.05 89
20260902171057 15 155 11.3 14.5 0.03 0.03 0.03 88
20260902170026 15 165 9.7 20.9 0.00 0.00 0.00 85
20260902165033 16 147 11.3 17.7 0.00 0.00 0.00 83
20260902164023 16 164 9.7 14.5 0.00 0.00 0.00 80
20260902163033 17 197 8.0 9.7 0.00 0.00 0.00 77
20260902162020 17 172 6.4 9.7 0.00 0.00 0.00 74
20260902161029 17 165 8.0 12.9 0.00 0.00 0.00 74
20260902160036 17 142 6.4 11.3 0.00 0.00 0.00 73
20260902155026 17 130 6.4 9.7 0.00 0.00 0.00 73
20260902154034 16 153 6.4 9.7 0.00 0.00 0.00 75
20260902153023 16 128 8.0 12.9 0.00 0.00 0.00 76
20260902152031 16 127 4.8 11.3 0.00 0.00 0.00 78
20260902151020 16 154 8.0 11.3 0.00 0.00 0.00 78
20260902150028 16 137 6.4 8.0 0.00 0.00 0.00 80
20260902145036 16 105 3.2 4.8 0.00 0.00 0.00 80
20260902144025 16 119 6.4 9.7 0.00 0.00 0.00 80
20260902143033 15 131 4.8 6.4 0.00 0.00 0.00 81
20260902142022 15 107 4.8 8.0 0.00 0.00 0.00 81
20260902141033 15 99 6.4 9.7 0.00 0.00 0.00 82
20260902140019 15 96 6.4 9.7 0.00 0.00 0.00 82
20260902135027 15 98 3.2 6.4 0.00 0.00 0.00 82
20260902134036 15 120 4.8 6.4 0.00 0.00 0.00 82
20260902133025 15 113 3.2 6.4 0.00 0.00 0.00 81
20260902132053 15 110 3.2 6.4 0.00 0.00 0.00 81
20260902131024 15 105 6.4 8.0 0.00 0.00 0.00 80
20260902130033 15 89 6.4 11.3 0.00 0.00 0.00 80
20260902125019 16 82 6.4 11.3 0.00 0.00 0.00 79
20260902124027 16 100 6.4 9.7 0.00 0.00 0.00 79
20260902123035 16 96 4.8 6.4 0.00 0.00 0.00 79
20260902122024 16 113 3.2 4.8 0.00 0.00 0.00 79
20260902121032 16 122 4.8 8.0 0.00 0.00 0.00 79
20260902120024 16 89 6.4 8.0 0.00 0.00 0.00 79
20260902115033 16 90 4.8 6.4 0.00 0.00 0.00 79
20260902114019 16 117 6.4 11.3 0.00 0.00 0.00 79
20260902113027 16 108 6.4 9.7 0.00 0.00 0.00 79
20260902112035 15 103 6.4 14.5 0.00 0.00 0.00 80
20260902111024 15 108 6.4 11.3 0.00 0.00 0.00 80
20260902110033 15 121 9.7 14.5 0.00 0.00 0.00 81
20260902105024 15 109 6.4 11.3 0.00 0.00 0.00 82
20260902104030 15 123 8.0 12.9 0.00 0.00 0.00 82
20260902103019 15 133 6.4 9.7 0.00 0.00 0.00 83
20260902102027 15 134 8.0 11.3 0.00 0.00 0.00 83
20260902101035 15 151 4.8 8.0 0.00 0.00 0.00 83
20260902100024 15 133 4.8 6.4 0.00 0.00 0.00 83
20260902095033 15 139 6.4 9.7 0.00 0.00 0.00 83
20260902094022 15 111 4.8 8.0 0.00 0.00 0.00 82
20260902093048 15 113 6.4 8.0 0.00 0.00 0.00 81
20260902092019 15 109 4.8 8.0 0.00 0.00 0.00 79
20260902091027 15 88 6.4 9.7 0.00 0.00 0.00 78
20260902090035 15 123 6.4 9.7 0.00 0.00 0.00 78
20260902085045 15 139 8.0 9.7 0.00 0.00 0.00 79
20260902084032 15 120 6.4 11.3 0.00 0.00 0.00 80
20260902083041 15 151 6.4 9.7 0.00 0.00 0.00 80
20260902082050 15 176 3.2 4.8 0.00 0.00 0.00 81
20260902081019 15 167 3.2 6.4 0.00 0.00 0.00 82
20260902080047 15 163 3.2 4.8 0.00 0.00 0.00 82
20260902075035 15 165 3.2 6.4 0.00 0.00 0.00 82
20260902074027 15 136 4.8 9.7 0.00 0.00 0.00 83
20260902073052 15 140 6.4 9.7 0.00 0.00 0.00 83
20260902072027 15 131 6.4 11.3 0.00 0.00 0.00 83
20260902071049 15 140 4.8 6.4 0.00 0.00 0.00 83
20260902070019 15 133 4.8 8.0 0.00 0.00 0.00 82
20260902065027 16 128 8.0 9.7 0.00 0.00 0.00 82
20260902064034 16 139 8.0 11.3 0.00 0.00 0.00 81
20260902063024 16 155 9.7 12.9 0.00 0.00 0.00 80
20260902062052 16 163 9.7 16.1 0.00 0.00 0.00 79
20260902061022 16 133 8.0 12.9 0.00 0.00 0.00 79
20260902060030 16 142 9.7 16.1 0.00 0.00 0.00 79
20260902055037 16 129 9.7 11.3 0.00 0.00 0.00 79
20260902054027 16 129 8.0 11.3 0.00 0.00 0.00 79
20260902053035 16 110 6.4 8.0 0.00 0.00 0.00 78
20260902052024 16 140 6.4 11.3 0.00 0.00 0.00 78
20260902051033 16 124 4.8 8.0 0.00 0.00 0.00 77